(323181) = 2003 KC13

Discovered at Kitt Peak on 2003-05-27 by Spacewatch.

Orbit

Orbit type: Main Belt

Note: WebGL enabled browser required.

epoch2024-03-31.0
epoch JD2460400.5
perihelion date2021-12-06.17146
perihelion JD2459554.67146
argument of perihelion (°)135.73050
ascending node (°)79.69305
inclination (°)10.25344
eccentricity0.0912040
perihelion distance (AU)2.5400985
Tisserand w.r.t. Jupiter3.3
ΔV w.r.t. Earth (km/sec)10.5
semimajor axis (AU)2.7950150
mean anomaly (°)178.40621
mean daily motion (°/day)0.21092480
aphelion distance (AU)3.050
period (years)4.67
P-vector [x]-0.80392188
P-vector [y]-0.58304201
P-vector [z]-0.11735258
Q-vector [x]0.56836521
Q-vector [y]-0.69506814
Q-vector [z]-0.44027407
absolute magnitude16.57
phase slope0.15
uncertainty0
referenceMPEC 2024-C93
observations used280
oppositions13
arc length (days)7590
first opposition used2003
last opposition used2024
residual rms (arc-secs)0.76
perturbers coarse indicatorM-v
perturbers precise indicator003Ek
first observation date used2003-03-31.0
last observation date used2024-01-10.0
computer nameMPCLINUX
JD of orbit computation2456966.721252
perihelion JD uncertainty (days)2.6489E-04
argument of perihelion uncertainty (°)7.8550E-05
ascending node uncertainty (°)5.9247E-05
inclination uncertainty (°)1.2001E-05
eccentricity uncertainty 1.3046E-07
perihelion distance uncertainty (AU)3.5770E-07
Minimum Orbit Intersection Distances (in AU)
for orbit epoch: 2460200.5, reference: E2024-C93
Mercury2.08938
Venus1.816
Earth1.53719
Mars0.96394
Jupiter1.95949
Saturn6.0794
Uranus15.8357
Neptune26.8062

Observations

292 total observations over interval: 2003 03 31.41661 – 2024 01 10.08307
These data are available for download (format description).

Date (UT) J2000 RA J2000 Dec Magn Location Ref
2003 03 31.41661 15 12 52.77 -06 11 19.5 20.6 V 691 – Steward Observatory, Kitt Peak-Spacewatch MPS 155852
2003 03 31.44625 15 12 52.09 -06 11 16.0 20.4 V 691 – Steward Observatory, Kitt Peak-Spacewatch MPS 155852
2003 03 31.47621 15 12 51.40 -06 11 12.7 20.3 V 691 – Steward Observatory, Kitt Peak-Spacewatch MPS 155852
2003 04 30.34728 14 52 29.47 -05 21 11.3 20.5 V 691 – Steward Observatory, Kitt Peak-Spacewatch MPS 155852
2003 04 30.37519 14 52 27.92 -05 21 09.7 20.4 V 691 – Steward Observatory, Kitt Peak-Spacewatch MPS 155852
2003 04 30.40760 14 52 26.11 -05 21 07.9 20.8 V 691 – Steward Observatory, Kitt Peak-Spacewatch MPS 155852
2003 05 27.17791 14 29 58.01 -05 39 41.2 21.1 V 691 – Steward Observatory, Kitt Peak-Spacewatch MPS 80306
2003 05 27.20684 14 29 56.76 -05 39 44.9 21.3 V 691 – Steward Observatory, Kitt Peak-Spacewatch MPS 80306
2003 05 27.23437 14 29 55.67 -05 39 49.4 21.5 V 691 – Steward Observatory, Kitt Peak-Spacewatch MPS 80306
2003 05 28.17942 14 29 18.76 -05 42 14.3 21.5 V 291 – LPL/Spacewatch II MPS 80306
2003 05 28.18491 14 29 18.52 -05 42 15.2 21.1 V 291 – LPL/Spacewatch II MPS 80306
2003 05 28.19033 14 29 18.33 -05 42 15.9 21.2 V 291 – LPL/Spacewatch II MPS 80306
2003 06 01.25317 14 26 52.55 -05 53 59.1 21.5 V 691 – Steward Observatory, Kitt Peak-Spacewatch MPS 80306
2003 06 01.28228 14 26 51.54 -05 54 04.7 21.6 V 691 – Steward Observatory, Kitt Peak-Spacewatch MPS 80306
2003 06 01.30882 14 26 50.61 -05 54 10.0 21.7 V 691 – Steward Observatory, Kitt Peak-Spacewatch MPS 80306
2005 11 06.21875 03 40 41.34 +12 13 41.7 21.4 V 691 – Steward Observatory, Kitt Peak-Spacewatch MPS 172812
2005 11 06.23607 03 40 40.37 +12 13 40.4 21.0 V 691 – Steward Observatory, Kitt Peak-Spacewatch MPS 172812
2005 11 06.25680 03 40 39.27 +12 13 38.3 21.1 V 691 – Steward Observatory, Kitt Peak-Spacewatch MPS 172812
2005 12 24.19475 03 03 13.62 +12 24 55.1   291 – LPL/Spacewatch II MPS 172812
2005 12 24.20198 03 03 13.43 +12 24 55.9   291 – LPL/Spacewatch II MPS 172812
2005 12 24.20920 03 03 13.25 +12 24 56.8   291 – LPL/Spacewatch II MPS 172812
2007 02 16.31086 09 51 23.68 +28 13 31.2 19.9 V 703 – Catalina Sky Survey MPS 199464
2007 02 16.32007 09 51 22.96 +28 13 35.6 19.9 V 703 – Catalina Sky Survey MPS 199464
2007 02 16.32927 09 51 22.42 +28 13 38.9 20.2 V 703 – Catalina Sky Survey MPS 199464
2007 02 16.33848 09 51 21.99 +28 13 42.7 20.2 V 703 – Catalina Sky Survey MPS 199464
2010 12 13.32877 05 13 46.23 +23 02 21.4 20.3 V G96 – Mt. Lemmon Survey MPS 358789
2010 12 13.33398 05 13 45.84 +23 02 21.9 20.2 V G96 – Mt. Lemmon Survey MPS 358789
2010 12 13.33925 05 13 45.55 +23 02 22.5 20.1 V G96 – Mt. Lemmon Survey MPS 358789
2010 12 13.34450 05 13 45.22 +23 02 21.7 19.3 V G96 – Mt. Lemmon Survey MPS 358789
2011 01 12.07626 04 48 15.91 +23 50 10.6 20.9 V G96 – Mt. Lemmon Survey MPS 365448
2011 01 12.08148 04 48 15.69 +23 50 11.1 21.9 V G96 – Mt. Lemmon Survey MPS 365448
2011 01 12.08675 04 48 15.51 +23 50 11.1 21.5 V G96 – Mt. Lemmon Survey MPS 365448
2011 01 12.09198 04 48 15.37 +23 50 11.7 20.6 V G96 – Mt. Lemmon Survey MPS 365448
2012 02 25.45955 12 41 20.79 +12 40 42.0 20.2 V 703 – Catalina Sky Survey MPS 414149
2012 02 25.46516 12 41 20.72 +12 40 45.3 20.4 V 703 – Catalina Sky Survey MPS 414149
2012 02 25.47084 12 41 20.50 +12 40 46.5 19.5 V 703 – Catalina Sky Survey MPS 414149
2012 02 25.47652 12 41 20.22 +12 40 49.6 19.8 V 703 – Catalina Sky Survey MPS 414149
2012 03 21.37722 12 24 13.89 +15 13 28.1 20.3 V 703 – Catalina Sky Survey MPS 417203
2012 03 21.38755 12 24 13.39 +15 13 30.1 19.4 V 703 – Catalina Sky Survey MPS 417203
2012 03 21.39787 12 24 12.85 +15 13 34.8 20.4 V 703 – Catalina Sky Survey MPS 417203
2012 03 21.40821 12 24 12.24 +15 13 36.4 20.1 V 703 – Catalina Sky Survey MPS 417203
2012 03 29.30179 12 17 25.62 +15 45 58.3 20.4 V 703 – Catalina Sky Survey MPS 418436
2012 03 29.30804 12 17 25.22 +15 45 59.2 19.7 V 703 – Catalina Sky Survey MPS 418436
2012 03 29.31436 12 17 24.90 +15 45 59.3 19.5 V 703 – Catalina Sky Survey MPS 418436
2012 03 29.32056 12 17 24.46 +15 46 00.7 19.9 V 703 – Catalina Sky Survey MPS 418436
2012 04 12.19634 12 06 24.33 +16 09 27.9 19.9 V 703 – Catalina Sky Survey MPS 425958
2012 04 12.20144 12 06 24.04 +16 09 26.0 19.5 V 703 – Catalina Sky Survey MPS 425958
2012 04 12.20657 12 06 23.68 +16 09 27.7 20.7 V 703 – Catalina Sky Survey MPS 425958
2013 07 13.47090 20 21 09.884 -29 38 02.77 20.4 w F51 – Pan-STARRS 1, Haleakala MPS 472605
2013 07 13.48799 20 21 08.941 -29 38 09.35 20.3 w F51 – Pan-STARRS 1, Haleakala MPS 472605
2013 07 13.50440 20 21 08.042 -29 38 15.59 20.3 w F51 – Pan-STARRS 1, Haleakala MPS 472605
2014 10 02.43996 02 13 37.334 +00 21 22.78 21.0 w F51 – Pan-STARRS 1, Haleakala MPS 538701
2014 10 02.45184 02 13 36.823 +00 21 19.92 21.2 w F51 – Pan-STARRS 1, Haleakala MPS 538701
2014 10 02.46374 02 13 36.318 +00 21 17.14 21.2 w F51 – Pan-STARRS 1, Haleakala MPS 538701
2014 10 02.47563 02 13 35.803 +00 21 14.42 21.1 w F51 – Pan-STARRS 1, Haleakala MPS 538701
2014 10 25.41990 01 54 58.096 -00 57 47.16 20.7 w F51 – Pan-STARRS 1, Haleakala MPS 544098
2014 10 25.43271 01 54 57.407 -00 57 49.10 21.0 w F51 – Pan-STARRS 1, Haleakala MPS 544098
2014 10 25.45839 01 54 56.034 -00 57 53.00 21.0 w F51 – Pan-STARRS 1, Haleakala MPS 544098
2014 11 22.36674 01 34 19.337 -01 15 04.21 21.3 w F51 – Pan-STARRS 1, Haleakala MPS 549457
2014 11 22.38015 01 34 18.889 -01 15 03.32 21.6 w F51 – Pan-STARRS 1, Haleakala MPS 549457
2014 11 22.39355 01 34 18.463 -01 15 02.21 21.2 w F51 – Pan-STARRS 1, Haleakala MPS 549457
2014 11 22.40702 01 34 18.026 -01 15 00.72 21.5 w F51 – Pan-STARRS 1, Haleakala MPS 549457
2015 01 08.22286 01 33 23.951 +02 13 50.71 21.7 w F51 – Pan-STARRS 1, Haleakala MPS 561123
2015 01 08.23526 01 33 24.286 +02 13 55.37 21.9 w F51 – Pan-STARRS 1, Haleakala MPS 561123
2015 01 08.24765 01 33 24.618 +02 14 00.73 21.8 w F51 – Pan-STARRS 1, Haleakala MPS 561123
2016 01 02.42837 07 31 22.08 +29 01 58.5 20.2 V G96 – Mt. Lemmon Survey MPS 668012
2016 01 02.43411 07 31 21.75 +29 02 00.0 20.6 V G96 – Mt. Lemmon Survey MPS 668012
2016 01 02.43986 07 31 21.41 +29 02 02.3 20.9 V G96 – Mt. Lemmon Survey MPS 668012
2016 01 02.44561 07 31 21.03 +29 02 03.8 20.8 V G96 – Mt. Lemmon Survey MPS 668012
2016 01 02.53496 07 31 15.872 +29 02 34.61 20.4 r F51 – Pan-STARRS 1, Haleakala MPS 668012
2016 01 02.54045 07 31 15.560 +29 02 36.33 20.6 r F51 – Pan-STARRS 1, Haleakala MPS 668012
2016 01 02.54766 07 31 15.115 +29 02 38.75 20.6 r F51 – Pan-STARRS 1, Haleakala MPS 668012
2016 01 02.55317 07 31 14.784 +29 02 40.50 20.5 r F51 – Pan-STARRS 1, Haleakala MPS 668012
2016 01 02.56052 07 31 14.345 +29 02 43.02 20.5 r F51 – Pan-STARRS 1, Haleakala MPS 668012
2016 01 02.56569 07 31 14.030 +29 02 44.60 20.5 r F51 – Pan-STARRS 1, Haleakala MPS 668012
2016 01 03.72319 07 30 06.25 +29 09 03.5 20.4 R D29 – Purple Mountain Observatory, XuYi Station MPS 668012
2016 01 03.74398 07 30 05.05 +29 09 10.3 20.2 R D29 – Purple Mountain Observatory, XuYi Station MPS 668012
2016 01 03.76215 07 30 03.94 +29 09 16.2 20.4 R D29 – Purple Mountain Observatory, XuYi Station MPS 668012
2016 01 07.34158 07 26 29.399 +29 28 13.99 20.4 w F51 – Pan-STARRS 1, Haleakala MPS 668012
2016 01 07.35192 07 26 28.750 +29 28 17.03 20.6 w F51 – Pan-STARRS 1, Haleakala MPS 668012
2016 01 07.36227 07 26 28.092 +29 28 20.36 20.4 w F51 – Pan-STARRS 1, Haleakala MPS 668012
2016 01 07.37263 07 26 27.438 +29 28 23.71 20.5 w F51 – Pan-STARRS 1, Haleakala MPS 668012
2016 02 09.26177 06 57 00.699 +31 15 48.82 21.1 w F51 – Pan-STARRS 1, Haleakala MPS 682115
2016 02 09.27595 06 57 00.160 +31 15 50.01 21.0 w F51 – Pan-STARRS 1, Haleakala MPS 682115
2016 02 09.29017 06 56 59.638 +31 15 51.05 20.9 w F51 – Pan-STARRS 1, Haleakala MPS 682115
2016 02 09.30447 06 56 59.112 +31 15 52.21 21.0 w F51 – Pan-STARRS 1, Haleakala MPS 682115
2017 04 06.46300 15 11 24.90 -06 09 19.4 20.4 V G96 – Mt. Lemmon Survey MPS 789678
2017 04 06.46725 15 11 24.76 -06 09 19.0 20.2 V G96 – Mt. Lemmon Survey MPS 789678
2017 04 06.47150 15 11 24.63 -06 09 18.2 20.2 V G96 – Mt. Lemmon Survey MPS 789678
2017 04 06.47576 15 11 24.48 -06 09 17.9 20.2 V G96 – Mt. Lemmon Survey MPS 789678
